�������l�o���
Date,Time,MP-1(��Sv/h),MP-2(��Sv/h),MP-3(��Sv/h),MP-4(��Sv/h),MP-5(��Sv/h),MP-6(��Sv/h),MP-7(��Sv/h),MP-8(��Sv/h),����,����(m/s),���J
2020/05/17,00:00,0.720,1.037,0.680,1.267,0.904,0.409,0.710,0.667,��,4.5,��
2020/05/17,00:10,0.719,1.037,0.681,1.269,0.905,0.409,0.708,0.665,��,3.6,��
2020/05/17,00:20,0.718,1.038,0.680,1.269,0.901,0.408,0.709,0.666,��,3.4,��
2020/05/17,00:30,0.719,1.037,0.681,1.269,0.900,0.408,0.708,0.665,��,2.3,��
2020/05/17,00:40,0.719,1.037,0.678,1.269,0.902,0.408,0.707,0.665,��쐼,2.6,��
2020/05/17,00:50,0.720,1.038,0.679,1.268,0.900,0.408,0.708,0.665,��,2.0,��
2020/05/17,01:00,0.718,1.037,0.678,1.270,0.903,0.409,0.708,0.667,��쐼,2.2,��
2020/05/17,01:10,0.720,1.035,0.679,1.267,0.904,0.408,0.710,0.665,��,2.0,��
2020/05/17,01:20,0.720,1.036,0.681,1.270,0.903,0.409,0.709,0.666,��쓌,2.6,��
2020/05/17,01:30,0.720,1.037,0.678,1.269,0.902,0.406,0.709,0.665,��,2.2,��
2020/05/17,01:40,0.721,1.035,0.679,1.267,0.903,0.408,0.707,0.665,��쐼,2.0,��
2020/05/17,01:50,0.719,1.034,0.679,1.268,0.905,0.409,0.708,0.665,�쐼,1.7,��
2020/05/17,02:00,0.721,1.034,0.680,1.270,0.905,0.410,0.709,0.667,���쐼,0.9,��
2020/05/17,02:10,0.722,1.037,0.679,1.268,0.904,0.409,0.710,0.665,���k��,0.9,��
2020/05/17,02:20,0.720,1.035,0.679,1.267,0.902,0.408,0.709,0.666,���k��,1.4,��
2020/05/17,02:30,0.720,1.036,0.680,1.267,0.904,0.409,0.708,0.666,�k��,1.1,��
2020/05/17,02:40,0.719,1.036,0.679,1.270,0.902,0.408,0.711,0.666,�k�k��,1.1,��
2020/05/17,02:50,0.720,1.036,0.678,1.271,0.902,0.409,0.709,0.665,�k�k��,1.5,��
2020/05/17,03:00,0.716,1.035,0.679,1.269,0.904,0.408,0.709,0.665,�k��,1.5,��
2020/05/17,03:10,0.720,1.034,0.680,1.270,0.903,0.408,0.708,0.667,�k��,1.2,��
2020/05/17,03:20,0.719,1.036,0.680,1.269,0.903,0.409,0.708,0.665,���k��,0.9,��
2020/05/17,03:30,0.719,1.037,0.680,1.268,0.905,0.407,0.709,0.666,-,CALM,��
2020/05/17,03:40,0.720,1.034,0.680,1.269,0.903,0.408,0.707,0.664,-,CALM,��
2020/05/17,03:50,0.719,1.034,0.680,1.271,0.904,0.409,0.709,0.666,-,CALM,��
2020/05/17,04:00,0.718,1.034,0.680,1.268,0.902,0.408,0.709,0.666,���k��,0.9,��
2020/05/17,04:10,0.718,1.035,0.680,1.270,0.904,0.408,0.707,0.665,�k�k��,1.5,��
2020/05/17,04:20,0.720,1.035,0.679,1.268,0.904,0.408,0.710,0.667,�k�k��,1.7,��
2020/05/17,04:30,0.718,1.035,0.680,1.272,0.904,0.407,0.708,0.664,�k�k��,1.9,��
2020/05/17,04:40,0.720,1.033,0.678,1.268,0.902,0.409,0.707,0.664,�k�k��,1.7,��
2020/05/17,04:50,0.718,1.035,0.680,1.268,0.903,0.408,0.709,0.666,�k�k��,2.6,��
2020/05/17,05:00,0.718,1.034,0.679,1.269,0.904,0.408,0.708,0.666,�k,2.6,��
2020/05/17,05:10,0.718,1.035,0.679,1.269,0.903,0.408,0.709,0.667,�k�k��,4.1,��
2020/05/17,05:20,0.719,1.035,0.679,1.268,0.902,0.407,0.708,0.666,�k�k��,4.7,��
2020/05/17,05:30,0.720,1.034,0.680,1.268,0.903,0.408,0.709,0.665,�k�k��,3.8,��
2020/05/17,05:40,0.719,1.036,0.681,1.269,0.903,0.407,0.710,0.667,�k��,4.3,��
2020/05/17,05:50,0.721,1.034,0.679,1.271,0.904,0.407,0.708,0.666,�k��,4.2,��
2020/05/17,06:00,0.721,1.035,0.680,1.265,0.903,0.408,0.708,0.665,�k��,4.6,��
2020/05/17,06:10,0.721,1.036,0.681,1.269,0.904,0.409,0.711,0.665,�k��,4.5,��
2020/05/17,06:20,0.720,1.034,0.679,1.268,0.904,0.407,0.710,0.665,�k��,4.2,��
2020/05/17,06:30,0.719,1.035,0.680,1.269,0.904,0.408,0.710,0.667,�k��,3.9,��
2020/05/17,06:40,0.720,1.034,0.680,1.270,0.902,0.408,0.710,0.666,�k��,2.9,��
2020/05/17,06:50,0.723,1.032,0.681,1.271,0.904,0.408,0.709,0.664,�k�k��,4.0,��
2020/05/17,07:00,0.719,1.032,0.679,1.270,0.902,0.405,0.711,0.667,�k��,3.7,��
2020/05/17,07:10,0.722,1.033,0.680,1.269,0.905,0.407,0.710,0.667,�k�k��,2.9,��
2020/05/17,07:20,0.723,1.036,0.680,1.272,0.904,0.406,0.711,0.667,�k�k��,2.8,��
2020/05/17,07:30,0.722,1.035,0.680,1.270,0.905,0.407,0.709,0.667,�k,2.2,��
2020/05/17,07:40,0.722,1.035,0.681,1.270,0.906,0.407,0.709,0.667,�k,2.6,��
2020/05/17,07:50,0.722,1.034,0.679,1.272,0.906,0.406,0.710,0.666,�k,3.1,��
2020/05/17,08:00,0.723,1.033,0.683,1.273,0.905,0.407,0.711,0.664,�k,3.8,��
2020/05/17,08:10,0.721,1.035,0.681,1.270,0.907,0.406,0.707,0.663,�k�k��,4.5,��
2020/05/17,08:20,0.721,1.035,0.681,1.272,0.906,0.406,0.709,0.665,�k�k��,6.0,��
2020/05/17,08:30,0.722,1.036,0.681,1.269,0.905,0.406,0.710,0.664,�k�k��,6.3,��
2020/05/17,08:40,0.723,1.036,0.681,1.271,0.906,0.406,0.708,0.662,�k�k��,6.3,��
2020/05/17,08:50,0.724,1.036,0.681,1.272,0.905,0.407,0.708,0.663,�k�k��,6.9,��
2020/05/17,09:00,0.721,1.038,0.681,1.270,0.905,0.406,0.707,0.664,�k�k��,7.4,��
2020/05/17,09:10,0.723,1.039,0.681,1.273,0.905,0.406,0.710,0.665,�k�k��,6.4,��
2020/05/17,09:20,0.723,1.038,0.681,1.269,0.905,0.406,0.708,0.664,�k�k��,6.6,��
2020/05/17,09:30,0.723,1.040,0.680,1.273,0.907,0.405,0.709,0.665,�k�k��,7.4,��
2020/05/17,09:40,0.723,1.038,0.681,1.271,0.907,0.405,0.710,0.664,�k�k��,8.0,��
2020/05/17,09:50,0.723,1.038,0.681,1.271,0.906,0.405,0.709,0.665,�k�k��,7.8,��
2020/05/17,10:00,0.723,1.039,0.681,1.274,0.908,0.404,0.710,0.664,�k,4.8,��
2020/05/17,10:10,0.727,1.038,0.681,1.272,0.907,0.407,0.710,0.664,�k,5.2,��
2020/05/17,10:20,0.724,1.040,0.682,1.272,0.908,0.405,0.710,0.666,�k,5.6,��
2020/05/17,10:30,0.727,1.040,0.683,1.274,0.908,0.406,0.708,0.664,�k�k��,4.6,��
2020/05/17,10:40,0.723,1.040,0.682,1.273,0.909,0.406,0.711,0.664,�k�k��,4.9,��
2020/05/17,10:50,0.724,1.040,0.682,1.272,0.908,0.406,0.710,0.664,�k�k��,6.1,��
2020/05/17,11:00,0.723,1.037,0.681,1.269,0.908,0.405,0.708,0.665,�k�k��,7.2,��
2020/05/17,11:10,0.723,1.038,0.681,1.270,0.909,0.406,0.710,0.664,�k�k��,6.0,��
2020/05/17,11:20,0.723,1.043,0.682,1.268,0.910,0.406,0.711,0.664,�k,6.7,��
2020/05/17,11:30,0.724,1.041,0.683,1.271,0.908,0.405,0.709,0.663,�k�k��,6.3,��
2020/05/17,11:40,0.725,1.039,0.684,1.270,0.910,0.405,0.710,0.664,�k�k��,6.6,��
2020/05/17,11:50,0.725,1.043,0.683,1.271,0.911,0.406,0.708,0.666,�k�k��,6.6,��
2020/05/17,12:00,0.725,1.042,0.683,1.270,0.910,0.407,0.708,0.664,�k�k��,5.6,��
2020/05/17,12:10,0.724,1.042,0.682,1.272,0.911,0.407,0.710,0.666,�k�k��,3.9,��
2020/05/17,12:20,0.723,1.044,0.681,1.271,0.912,0.406,0.710,0.664,�k�k��,4.2,��
2020/05/17,12:30,0.724,1.040,0.683,1.270,0.912,0.405,0.710,0.666,�k,2.9,��
2020/05/17,12:40,0.722,1.043,0.683,1.272,0.909,0.405,0.708,0.666,�k�k��,2.9,��
2020/05/17,12:50,0.723,1.041,0.683,1.270,0.913,0.406,0.709,0.666,�k��,2.0,��
2020/05/17,13:00,0.724,1.042,0.682,1.272,0.910,0.404,0.709,0.665,�k�k��,2.6,��
2020/05/17,13:10,0.724,1.043,0.682,1.269,0.911,0.406,0.709,0.665,�k,2.0,��
2020/05/17,13:20,0.724,1.044,0.684,1.271,0.909,0.405,0.708,0.664,�k�k��,1.2,��
2020/05/17,13:30,0.723,1.042,0.683,1.270,0.910,0.406,0.710,0.666,�k��,2.3,��
2020/05/17,13:40,0.724,1.040,0.683,1.272,0.912,0.404,0.709,0.665,�k��,1.7,��
2020/05/17,13:50,0.722,1.042,0.683,1.270,0.912,0.404,0.710,0.665,�k�k��,3.1,��
2020/05/17,14:00,0.723,1.040,0.683,1.272,0.910,0.406,0.708,0.665,�k�k��,3.4,��
2020/05/17,14:10,0.723,1.042,0.683,1.270,0.910,0.404,0.708,0.665,�k�k��,3.7,��
2020/05/17,14:20,0.724,1.042,0.682,1.272,0.911,0.405,0.707,0.663,�k��,3.2,��
2020/05/17,14:30,0.725,1.040,0.681,1.270,0.911,0.405,0.709,0.664,�k��,3.7,��
2020/05/17,14:40,0.723,1.043,0.682,1.271,0.910,0.405,0.708,0.666,�k�k��,4.6,��
2020/05/17,14:50,0.723,1.045,0.681,1.271,0.911,0.406,0.710,0.664,�k�k��,3.8,��
2020/05/17,15:00,0.723,1.040,0.682,1.270,0.911,0.404,0.707,0.664,�k,4.8,��
2020/05/17,15:10,0.723,1.046,0.683,1.271,0.910,0.406,0.708,0.664,�k�k��,4.5,��
2020/05/17,15:20,0.724,1.044,0.680,1.268,0.910,0.405,0.708,0.665,�k�k��,4.7,��
2020/05/17,15:30,0.723,1.043,0.683,1.271,0.911,0.404,0.709,0.663,�k�k��,5.0,��
2020/05/17,15:40,0.723,1.040,0.681,1.270,0.911,0.406,0.709,0.664,�k�k��,4.7,��
2020/05/17,15:50,0.723,1.042,0.683,1.269,0.911,0.405,0.709,0.664,�k�k��,5.1,��
2020/05/17,16:00,0.724,1.043,0.682,1.270,0.910,0.405,0.707,0.664,�k,4.6,��
2020/05/17,16:10,0.725,1.044,0.682,1.269,0.912,0.406,0.707,0.665,�k,4.0,��
2020/05/17,16:20,0.721,1.042,0.681,1.273,0.912,0.404,0.708,0.663,�k,4.4,��
2020/05/17,16:30,0.722,1.041,0.682,1.271,0.913,0.405,0.709,0.663,�k,4.1,��
2020/05/17,16:40,0.723,1.043,0.682,1.270,0.908,0.404,0.709,0.664,�k,4.2,��
2020/05/17,16:50,0.724,1.042,0.680,1.271,0.909,0.403,0.709,0.664,�k�k��,5.0,��
2020/05/17,17:00,0.722,1.043,0.681,1.269,0.910,0.404,0.709,0.664,�k,4.9,��
2020/05/17,17:10,0.722,1.041,0.682,1.270,0.911,0.404,0.709,0.663,�k�k��,4.4,��
2020/05/17,17:20,0.722,1.041,0.680,1.271,0.912,0.403,0.709,0.664,�k,5.2,��
2020/05/17,17:30,0.721,1.043,0.684,1.272,0.911,0.403,0.708,0.664,�k,4.0,��
2020/05/17,17:40,0.721,1.042,0.681,1.270,0.910,0.404,0.708,0.665,�k,4.0,��
2020/05/17,17:50,0.720,1.044,0.680,1.273,0.909,0.405,0.708,0.664,�k,4.4,��
2020/05/17,18:00,0.720,1.046,0.681,1.273,0.910,0.404,0.708,0.665,�k,4.6,��
2020/05/17,18:10,0.723,1.044,0.682,1.274,0.909,0.404,0.705,0.665,�k,3.7,��
2020/05/17,18:20,0.723,1.045,0.683,1.271,0.908,0.405,0.707,0.665,�k,4.1,��
2020/05/17,18:30,0.722,1.047,0.684,1.274,0.910,0.405,0.708,0.664,�k,4.1,��
2020/05/17,18:40,0.723,1.045,0.684,1.274,0.913,0.406,0.707,0.666,�k,4.7,��
2020/05/17,18:50,0.724,1.046,0.683,1.274,0.913,0.406,0.707,0.666,�k,4.6,��
2020/05/17,19:00,0.725,1.043,0.685,1.275,0.912,0.407,0.706,0.666,�k�k��,3.3,��
2020/05/17,19:10,0.725,1.046,0.683,1.274,0.909,0.405,0.709,0.666,�k�k��,3.8,��
2020/05/17,19:20,0.723,1.044,0.684,1.274,0.913,0.406,0.708,0.667,�k,4.5,��
2020/05/17,19:30,0.723,1.046,0.684,1.273,0.912,0.406,0.708,0.666,�k�k��,3.3,��
2020/05/17,19:40,0.725,1.043,0.685,1.276,0.910,0.406,0.708,0.667,�k,3.4,��
2020/05/17,19:50,0.724,1.045,0.683,1.273,0.910,0.405,0.708,0.668,�k,3.4,��
2020/05/17,20:00,0.723,1.042,0.684,1.275,0.911,0.405,0.708,0.668,�k,3.3,��
2020/05/17,20:10,0.722,1.042,0.683,1.274,0.913,0.405,0.710,0.666,�k�k��,3.1,��
2020/05/17,20:20,0.724,1.044,0.683,1.275,0.912,0.406,0.707,0.665,�k�k��,2.9,��
2020/05/17,20:30,0.723,1.043,0.683,1.271,0.910,0.406,0.710,0.666,�k�k��,1.7,��
2020/05/17,20:40,0.724,1.044,0.683,1.273,0.913,0.405,0.709,0.666,�k,1.7,��
2020/05/17,20:50,0.723,1.043,0.684,1.275,0.913,0.404,0.709,0.665,�k,2.2,��
2020/05/17,21:00,0.724,1.044,0.683,1.274,0.912,0.404,0.711,0.666,�k,2.3,��
2020/05/17,21:10,0.724,1.043,0.684,1.275,0.911,0.405,0.708,0.665,�k,2.0,��
2020/05/17,21:20,0.723,1.042,0.682,1.273,0.913,0.403,0.708,0.665,�k,0.9,��
2020/05/17,21:30,0.720,1.042,0.682,1.273,0.914,0.404,0.709,0.666,�k,2.0,��
2020/05/17,21:40,0.723,1.043,0.684,1.272,0.910,0.405,0.708,0.666,�k�k��,2.6,��
2020/05/17,21:50,0.723,1.042,0.681,1.275,0.910,0.405,0.710,0.668,�k�k��,2.9,��
2020/05/17,22:00,0.722,1.044,0.682,1.272,0.911,0.405,0.709,0.667,�k�k��,3.2,��
2020/05/17,22:10,0.722,1.043,0.681,1.274,0.911,0.405,0.710,0.666,�k�k��,2.9,��
2020/05/17,22:20,0.721,1.043,0.683,1.275,0.910,0.405,0.707,0.665,�k�k��,2.2,��
2020/05/17,22:30,0.721,1.041,0.684,1.272,0.910,0.406,0.708,0.666,�k�k��,2.6,��
2020/05/17,22:40,0.723,1.042,0.683,1.270,0.910,0.406,0.710,0.667,�k�k��,2.0,��
2020/05/17,22:50,0.720,1.043,0.683,1.274,0.911,0.405,0.709,0.667,�k�k��,2.0,��
2020/05/17,23:00,0.723,1.042,0.681,1.269,0.910,0.404,0.711,0.666,�k�k��,1.7,��
2020/05/17,23:10,0.723,1.041,0.683,1.274,0.911,0.406,0.709,0.666,�k,1.5,��
2020/05/17,23:20,0.721,1.044,0.683,1.271,0.911,0.403,0.709,0.666,�k,0.9,��
2020/05/17,23:30,0.721,1.044,0.684,1.270,0.911,0.405,0.708,0.664,�k�k��,2.3,��
2020/05/17,23:40,0.720,1.042,0.682,1.272,0.910,0.404,0.707,0.666,�k�k��,2.5,��
2020/05/17,23:50,0.722,1.044,0.683,1.272,0.910,0.404,0.709,0.666,�k��,2.6,��
